| time (UTC) | temp F | wind direction | speed knots | gust knots | rain 1hr in | rain 24hr in | rain mn in | humidity % | barometer mb |
| 20260505002504 | 59 | 243 | 0.0 | 0.0 | 0.00 | 0.00 | 0.00 | 57 | 1006.9 |
| 20260505002008 | 60 | 243 | 0.0 | 0.0 | 0.00 | 0.00 | 0.00 | 53 | 1006.7 |
| 20260505001520 | 61 | 243 | 0.0 | 0.0 | 0.00 | 0.00 | 0.00 | 49 | 1006.7 |
| 20260505001008 | 61 | 243 | 0.0 | 0.0 | 0.00 | 0.00 | 0.00 | 52 | 1006.5 |
| 20260505000506 | 61 | 243 | 0.0 | 0.0 | 0.00 | 0.00 | 0.00 | 50 | 1006.4 |
| 20260505000025 | 61 | 243 | 0.0 | 0.0 | 0.00 | 0.00 | 0.00 | 51 | 1006.3 |
| 20260504235508 | 62 | 243 | 0.0 | 0.9 | 0.00 | 0.00 | 0.00 | 48 | 1006.3 |
| 20260504235008 | 63 | 243 | 0.0 | 1.7 | 0.00 | 0.00 | 0.00 | 44 | 1006.2 |
| 20260504234510 | 65 | 244 | 0.0 | 1.7 | 0.00 | 0.00 | 0.00 | 43 | 1006.1 |
| 20260504234005 | 65 | 244 | 0.0 | 1.7 | 0.00 | 0.00 | 0.00 | 40 | 1006.1 |
| 20260504233504 | 66 | 244 | 0.0 | 1.7 | 0.00 | 0.00 | 0.00 | 39 | 1006.0 |
| 20260504233014 | 66 | 248 | 0.0 | 1.7 | 0.00 | 0.00 | 0.00 | 38 | 1006.0 |
| 20260504232505 | 67 | 234 | 0.0 | 1.7 | 0.00 | 0.00 | 0.00 | 37 | 1006.0 |
| 20260504232007 | 67 | 270 | 0.0 | 1.7 | 0.00 | 0.00 | 0.00 | 37 | 1006.0 |
| 20260504231518 | 67 | 260 | 0.0 | 1.7 | 0.00 | 0.00 | 0.00 | 37 | 1005.9 |
| 20260504231008 | 67 | 261 | 0.9 | 1.7 | 0.00 | 0.00 | 0.00 | 37 | 1005.9 |
| 20260504230509 | 68 | 227 | 0.0 | 3.5 | 0.00 | 0.00 | 0.00 | 36 | 1005.8 |
| 20260504230021 | 68 | 222 | 0.9 | 4.3 | 0.00 | 0.00 | 0.00 | 34 | 1005.7 |
| 20260504225511 | 68 | 217 | 0.9 | 4.3 | 0.00 | 0.00 | 0.00 | 35 | 1005.7 |
| 20260504225008 | 68 | 220 | 0.0 | 4.3 | 0.00 | 0.00 | 0.00 | 35 | 1005.6 |
| 20260504224526 | 68 | 264 | 1.7 | 4.3 | 0.00 | 0.00 | 0.00 | 34 | 1005.4 |
| 20260504224007 | 68 | 216 | 0.9 | 2.6 | 0.00 | 0.00 | 0.00 | 35 | 1005.5 |
| 20260504223503 | 68 | 225 | 0.0 | 1.7 | 0.00 | 0.00 | 0.00 | 35 | 1005.5 |
| 20260504223014 | 68 | 213 | 0.0 | 2.6 | 0.00 | 0.00 | 0.00 | 35 | 1005.5 |
| 20260504222508 | 68 | 219 | 0.9 | 3.5 | 0.00 | 0.00 | 0.00 | 34 | 1005.3 |
| 20260504222008 | 68 | 259 | 0.0 | 3.5 | 0.00 | 0.00 | 0.00 | 35 | 1005.3 |
| 20260504221518 | 69 | 250 | 0.9 | 5.2 | 0.00 | 0.00 | 0.00 | 34 | 1005.3 |
| 20260504221008 | 69 | 238 | 0.9 | 5.2 | 0.00 | 0.00 | 0.00 | 32 | 1005.4 |
| 20260504220505 | 69 | 243 | 2.6 | 5.2 | 0.00 | 0.00 | 0.00 | 32 | 1005.4 |
| 20260504220022 | 70 | 250 | 2.6 | 6.1 | 0.00 | 0.00 | 0.00 | 32 | 1005.4 |
| 20260504215509 | 70 | 157 | 1.7 | 6.1 | 0.00 | 0.00 | 0.00 | 32 | 1005.5 |
| 20260504215008 | 70 | 294 | 0.9 | 5.2 | 0.00 | 0.00 | 0.00 | 33 | 1005.5 |
| 20260504214526 | 70 | 196 | 0.9 | 5.2 | 0.00 | 0.00 | 0.00 | 31 | 1005.5 |
| 20260504214009 | 70 | 294 | 1.7 | 6.1 | 0.00 | 0.00 | 0.00 | 33 | 1005.5 |
| 20260504213508 | 70 | 247 | 0.9 | 6.1 | 0.00 | 0.00 | 0.00 | 32 | 1005.4 |
| 20260504213024 | 70 | 291 | 1.7 | 6.1 | 0.00 | 0.00 | 0.00 | 31 | 1005.4 |
| 20260504212503 | 70 | 240 | 1.7 | 6.1 | 0.00 | 0.00 | 0.00 | 33 | 1005.3 |
| 20260504212007 | 69 | 273 | 1.7 | 5.2 | 0.00 | 0.00 | 0.00 | 33 | 1005.4 |
| 20260504211514 | 69 | 260 | 1.7 | 6.1 | 0.00 | 0.00 | 0.00 | 33 | 1005.4 |
| 20260504211004 | 70 | 260 | 1.7 | 7.0 | 0.00 | 0.00 | 0.00 | 32 | 1005.4 |
| 20260504210505 | 70 | 254 | 1.7 | 12.2 | 0.00 | 0.00 | 0.00 | 30 | 1005.2 |
| 20260504205511 | 71 | 297 | 3.5 | 10.4 | 0.00 | 0.00 | 0.00 | 31 | 1005.2 |
| 20260504205009 | 70 | 323 | 3.5 | 8.7 | 0.00 | 0.00 | 0.00 | 32 | 1005.2 |
| 20260504204523 | 70 | 303 | 2.6 | 7.8 | 0.00 | 0.00 | 0.00 | 31 | 1005.2 |
| 20260504204011 | 70 | 294 | 2.6 | 7.8 | 0.00 | 0.00 | 0.00 | 31 | 1005.3 |
| 20260504203513 | 70 | 284 | 3.5 | 6.1 | 0.00 | 0.00 | 0.00 | 32 | 1005.2 |
| 20260504203034 | 70 | 217 | 2.6 | 6.1 | 0.00 | 0.00 | 0.00 | 33 | 1005.2 |
| 20260504202507 | 70 | 221 | 0.0 | 7.0 | 0.00 | 0.00 | 0.00 | 31 | 1005.2 |
| 20260504202010 | 71 | 271 | 2.6 | 7.8 | 0.00 | 0.00 | 0.00 | 32 | 1005.3 |
| 20260504201014 | 70 | 226 | 2.6 | 7.0 | 0.00 | 0.00 | 0.00 | 32 | 1005.2 |
| 20260504200507 | 70 | 216 | 2.6 | 7.0 | 0.00 | 0.00 | 0.00 | 31 | 1005.4 |
| 20260504195508 | 70 | 296 | 0.9 | 6.1 | 0.00 | 0.00 | 0.00 | 33 | 1005.4 |
| 20260504195009 | 70 | 267 | 1.7 | 9.6 | 0.00 | 0.00 | 0.00 | 33 | 1005.4 |
| 20260504194010 | 70 | 234 | 2.6 | 7.0 | 0.00 | 0.00 | 0.00 | 32 | 1005.4 |
| 20260504193512 | 70 | 294 | 2.6 | 7.0 | 0.00 | 0.00 | 0.00 | 31 | 1005.4 |
| 20260504193024 | 70 | 288 | 1.7 | 8.7 | 0.00 | 0.00 | 0.00 | 33 | 1005.4 |
| 20260504192509 | 70 | 289 | 3.5 | 11.3 | 0.00 | 0.00 | 0.00 | 31 | 1005.4 |
| 20260504192010 | 69 | 219 | 4.3 | 9.6 | 0.00 | 0.00 | 0.00 | 32 | 1005.5 |
| 20260504191526 | 70 | 246 | 2.6 | 7.8 | 0.00 | 0.00 | 0.00 | 31 | 1005.6 |
| 20260504191014 | 70 | 236 | 1.7 | 7.8 | 0.00 | 0.00 | 0.00 | 33 | 1005.5 |
| 20260504190504 | 70 | 221 | 2.6 | 6.1 | 0.00 | 0.00 | 0.00 | 32 | 1005.5 |
| 20260504190019 | 69 | 267 | 1.7 | 6.1 | 0.00 | 0.00 | 0.00 | 34 | 1005.6 |
| 20260504185507 | 68 | 169 | 1.7 | 6.1 | 0.00 | 0.00 | 0.00 | 35 | 1005.6 |
| 20260504185003 | 68 | 294 | 2.6 | 7.0 | 0.00 | 0.00 | 0.00 | 34 | 1005.5 |
| 20260504184504 | 68 | 263 | 2.6 | 7.0 | 0.00 | 0.00 | 0.00 | 32 | 1005.6 |
| 20260504184003 | 68 | 255 | 2.6 | 5.2 | 0.00 | 0.00 | 0.00 | 33 | 1005.6 |
| 20260504183503 | 68 | 282 | 0.9 | 5.2 | 0.00 | 0.00 | 0.00 | 32 | 1005.7 |
| 20260504183006 | 68 | 259 | 1.7 | 4.3 | 0.00 | 0.00 | 0.00 | 33 | 1005.6 |
| 20260504182510 | 68 | 274 | 0.9 | 4.3 | 0.00 | 0.00 | 0.00 | 32 | 1005.7 |
| 20260504182006 | 68 | 215 | 0.9 | 4.3 | 0.00 | 0.00 | 0.00 | 33 | 1005.7 |
| 20260504181004 | 68 | 274 | 1.7 | 7.0 | 0.00 | 0.00 | 0.00 | 33 | 1005.6 |
| 20260504180506 | 68 | 258 | 1.7 | 5.2 | 0.00 | 0.00 | 0.00 | 33 | 1005.7 |
| 20260504180017 | 68 | 222 | 1.7 | 7.0 | 0.00 | 0.00 | 0.00 | 32 | 1005.6 |
| 20260504175505 | 68 | 213 | 2.6 | 9.6 | 0.00 | 0.00 | 0.00 | 32 | 1005.6 |
| 20260504175006 | 68 | 206 | 1.7 | 9.6 | 0.00 | 0.00 | 0.00 | 33 | 1005.7 |
| 20260504174003 | 69 | 290 | 3.5 | 11.3 | 0.00 | 0.00 | 0.00 | 30 | 1005.7 |
| 20260504173502 | 69 | 285 | 4.3 | 11.3 | 0.00 | 0.00 | 0.00 | 31 | 1005.8 |
| 20260504173005 | 70 | 261 | 3.5 | 10.4 | 0.00 | 0.00 | 0.00 | 30 | 1005.9 |
| 20260504172504 | 71 | 223 | 1.7 | 10.4 | 0.00 | 0.00 | 0.00 | 32 | 1005.9 |
| 20260504172004 | 70 | 273 | 3.5 | 7.8 | 0.00 | 0.00 | 0.00 | 31 | 1006.0 |
| 20260504171006 | 69 | 226 | 3.5 | 10.4 | 0.00 | 0.00 | 0.00 | 31 | 1005.9 |
| 20260504170505 | 69 | 242 | 3.5 | 10.4 | 0.00 | 0.00 | 0.00 | 31 | 1005.9 |
| 20260504141003 | 61 | 210 | 1.7 | 6.1 | 0.00 | 0.00 | 0.00 | 45 | 1007.9 |
| 20260504140503 | 61 | 305 | 2.6 | 6.1 | 0.00 | 0.00 | 0.00 | 43 | 1008.0 |
| 20260504130508 | 54 | 228 | 0.9 | 4.3 | 0.00 | 0.00 | 0.00 | 53 | 1008.6 |
| 20260504110506 | 45 | 217 | 0.0 | 1.7 | 0.00 | 0.00 | 0.00 | 63 | 1009.7 |
| 20260504100510 | 44 | 211 | 0.9 | 1.7 | 0.00 | 0.00 | 0.00 | 64 | 1009.4 |
| 20260504082002 | 41 | 280 | 0.0 | 0.0 | 0.00 | 0.00 | 0.00 | 79 | 1009.4 |
| 20260504081514 | 40 | 280 | 0.0 | 0.0 | 0.00 | 0.00 | 0.00 | 78 | 1009.4 |
| 20260504081004 | 40 | 280 | 0.0 | 1.7 | 0.00 | 0.00 | 0.00 | 78 | 1009.4 |
| 20260504080507 | 41 | 280 | 0.0 | 1.7 | 0.00 | 0.00 | 0.00 | 76 | 1009.4 |
| 20260504050506 | 36 | 280 | 0.0 | 1.7 | 0.00 | 0.00 | 0.00 | 83 | 1009.1 |
| 20260504050012 | 35 | 280 | 0.0 | 0.0 | 0.00 | 0.00 | 0.00 | 85 | 1009.2 |
| 20260504045503 | 35 | 280 | 0.0 | 0.0 | 0.00 | 0.00 | 0.00 | 85 | 1009.2 |
| 20260504045004 | 35 | 280 | 0.0 | 0.0 | 0.00 | 0.00 | 0.00 | 84 | 1009.2 |
| 20260504044517 | 35 | 280 | 0.0 | 0.0 | 0.00 | 0.00 | 0.00 | 85 | 1009.2 |
| 20260504044007 | 35 | 280 | 0.0 | 1.7 | 0.00 | 0.00 | 0.00 | 84 | 1009.2 |
| 20260504043508 | 35 | 280 | 0.0 | 1.7 | 0.00 | 0.00 | 0.00 | 84 | 1009.2 |
| 20260504043026 | 36 | 280 | 0.0 | 0.0 | 0.00 | 0.00 | 0.00 | 83 | 1009.2 |
| 20260504042508 | 36 | 280 | 0.0 | 0.0 | 0.00 | 0.00 | 0.00 | 85 | 1009.3 |
| 20260504042007 | 36 | 280 | 0.0 | 0.0 | 0.00 | 0.00 | 0.00 | 85 | 1009.2 |
| 20260504041526 | 36 | 280 | 0.0 | 0.0 | 0.00 | 0.00 | 0.00 | 83 | 1009.2 |
| 20260504041004 | 36 | 280 | 0.0 | 0.0 | 0.00 | 0.00 | 0.00 | 84 | 1009.2 |
| 20260504040504 | 36 | 280 | 0.0 | 0.0 | 0.00 | 0.00 | 0.00 | 84 | 1009.1 |
| 20260504040010 | 36 | 280 | 0.0 | 0.0 | 0.00 | 0.00 | 0.00 | 84 | 1009.2 |
| 20260504035506 | 36 | 280 | 0.0 | 0.0 | 0.00 | 0.00 | 0.00 | 84 | 1009.1 |
| 20260504035004 | 36 | 280 | 0.0 | 0.0 | 0.00 | 0.00 | 0.00 | 84 | 1009.2 |
| 20260504034516 | 36 | 280 | 0.0 | 0.0 | 0.00 | 0.00 | 0.00 | 84 | 1009.2 |
| 20260504034010 | 37 | 280 | 0.0 | 0.0 | 0.00 | 0.00 | 0.00 | 84 | 1009.1 |
| 20260504033506 | 37 | 280 | 0.0 | 0.0 | 0.00 | 0.00 | 0.00 | 84 | 1009.1 |
| 20260504033019 | 37 | 280 | 0.0 | 0.0 | 0.00 | 0.00 | 0.00 | 83 | 1009.0 |
| 20260504032507 | 37 | 280 | 0.0 | 0.0 | 0.00 | 0.00 | 0.00 | 83 | 1008.9 |
| 20260504032009 | 37 | 280 | 0.0 | 1.7 | 0.00 | 0.00 | 0.00 | 83 | 1008.9 |
| 20260504031528 | 36 | 280 | 0.0 | 1.7 | 0.00 | 0.00 | 0.00 | 82 | 1008.8 |
| 20260504031007 | 37 | 280 | 0.0 | 1.7 | 0.00 | 0.00 | 0.00 | 81 | 1008.8 |
| 20260504030508 | 37 | 280 | 0.0 | 1.7 | 0.00 | 0.00 | 0.00 | 80 | 1008.8 |
| 20260504030008 | 37 | 280 | 0.0 | 1.7 | 0.00 | 0.00 | 0.00 | 78 | 1008.8 |
| 20260504025505 | 37 | 280 | 0.0 | 1.7 | 0.00 | 0.00 | 0.00 | 83 | 1008.9 |
| 20260504025005 | 37 | 280 | 0.0 | 1.7 | 0.00 | 0.00 | 0.00 | 81 | 1008.9 |
| 20260504024511 | 37 | 280 | 0.0 | 1.7 | 0.00 | 0.00 | 0.00 | 80 | 1008.9 |
| 20260504024003 | 38 | 280 | 0.0 | 1.7 | 0.00 | 0.00 | 0.00 | 81 | 1008.8 |
| 20260504023503 | 38 | 280 | 0.0 | 0.0 | 0.00 | 0.00 | 0.00 | 79 | 1008.9 |
| 20260504023019 | 37 | 280 | 0.0 | 0.0 | 0.00 | 0.00 | 0.00 | 79 | 1008.9 |
| 20260504022503 | 38 | 280 | 0.0 | 0.0 | 0.00 | 0.00 | 0.00 | 80 | 1008.8 |
| 20260504022008 | 38 | 280 | 0.0 | 0.0 | 0.00 | 0.01 | 0.00 | 81 | 1008.9 |
| 20260504021527 | 37 | 280 | 0.0 | 0.0 | 0.00 | 0.01 | 0.00 | 81 | 1008.9 |
| 20260504021009 | 37 | 280 | 0.0 | 1.7 | 0.00 | 0.01 | 0.00 | 81 | 1008.8 |
| 20260504020506 | 37 | 280 | 0.0 | 1.7 | 0.00 | 0.01 | 0.00 | 79 | 1008.8 |
| 20260504020030 | 38 | 280 | 0.0 | 0.9 | 0.00 | 0.01 | 0.00 | 79 | 1008.7 |
| 20260504015508 | 39 | 280 | 0.0 | 0.0 | 0.00 | 0.01 | 0.00 | 76 | 1008.7 |
| 20260504015021 | 39 | 280 | 0.0 | 0.0 | 0.00 | 0.01 | 0.00 | 77 | 1008.7 |
| 20260504014510 | 39 | 280 | 0.0 | 0.9 | 0.00 | 0.01 | 0.00 | 79 | 1008.6 |
| 20260504014004 | 39 | 280 | 0.0 | 0.9 | 0.00 | 0.01 | 0.00 | 77 | 1008.5 |
| 20260504013507 | 39 | 280 | 0.0 | 1.7 | 0.00 | 0.01 | 0.00 | 77 | 1008.5 |
| 20260504013017 | 39 | 280 | 0.0 | 1.7 | 0.00 | 0.01 | 0.00 | 76 | 1008.6 |
| 20260504012510 | 40 | 280 | 0.0 | 1.7 | 0.00 | 0.01 | 0.00 | 75 | 1008.5 |
| 20260504012008 | 40 | 280 | 0.0 | 0.0 | 0.00 | 0.02 | 0.00 | 74 | 1008.6 |
| 20260504011521 | 40 | 280 | 0.0 | 0.0 | 0.00 | 0.03 | 0.00 | 71 | 1008.5 |
| 20260504011010 | 41 | 280 | 0.0 | 0.0 | 0.00 | 0.03 | 0.00 | 72 | 1008.5 |
| 20260504010513 | 41 | 280 | 0.0 | 0.0 | 0.00 | 0.03 | 0.00 | 68 | 1008.4 |
| 20260504010026 | 42 | 280 | 0.0 | 0.0 | 0.00 | 0.03 | 0.00 | 73 | 1008.2 |
| 20260504005508 | 42 | 280 | 0.0 | 0.0 | 0.00 | 0.03 | 0.00 | 72 | 1008.2 |
| 20260504005010 | 42 | 280 | 0.0 | 0.0 | 0.00 | 0.04 | 0.00 | 67 | 1008.2 |
| 20260504004526 | 43 | 280 | 0.0 | 0.0 | 0.00 | 0.04 | 0.00 | 67 | 1008.1 |
| 20260504004009 | 43 | 280 | 0.0 | 1.7 | 0.00 | 0.05 | 0.00 | 67 | 1008.1 |
| 20260504003511 | 44 | 280 | 0.0 | 1.7 | 0.00 | 0.06 | 0.00 | 66 | 1008.0 |
| 20260504003014 | 45 | 280 | 0.0 | 1.7 | 0.00 | 0.07 | 0.00 | 58 | 1008.0 |